User: anonymous   Login
Location: Unspecified
(0.0000°N, 0.0000°E)
Time: 16:55:39
(UTC+00:00)
Language:

RISAT 1 - Orbit

View from above orbital plane
View from above orbital plane
View from above satellite
View from above satellite

Ground track
Ground track

The orbit data is extracted from the following two-line orbital elements,

1 38248U 12017A   15241.13208522  .00000977  00000-0  65903-4 0  9992
2 38248 097.5622 247.0065 0006195 122.2881 280.0913 15.08942836184009
Epoch (UTC): 29 August 2015 03:10:12
Eccentricity: 0.0006195
inclination: 97.5622°
perigee height: 535 km
apogee height: 544 km
right ascension of ascending node: 247.0065°
argument of perigee: 122.2881°
revolutions per day: 15.08942836
mean anomaly at epoch: 280.0913°
orbit number at epoch: 18400

The dashed part of the orbit path shows where the satellite is in the earth's shadow,  

DLR